Regional Weather Roundup
Issued by NWS

Home | Current Version | Previous Version | Graphics & Text | Print | Product List | Glossary On
Versions: 1 2 3 4 5 6 7 8 9 10 11 12 13 14 15 16 17 18 19 20 21 22 23 24 25 26 27 28 29 30 31 32 33 34 35 36 37 38 39 40 41 42 43 44 45 46 47 48 49 50
000
ASUS43 KDTX 050010
RWRMI
MICHIGAN HOURLY REGIONAL WEATHER ROUNDUP
NATIONAL WEATHER SERVICE DETROIT/PONTIAC MI
800 PM EDT TUE AUG 04 2015

NOTE: "FAIR" INDICATES FEW OR NO CLOUDS BELOW 12,000 FEET WITH NO
SIGNIFICANT WEATHER AND/OR OBSTRUCTION TO VISIBILITY.

MIZ047>049-052>055-059>063-066>070-074>076-081>083-050100-
SOUTHEAST LOWER MICHIGAN

CITY           SKY/WX    TMP DP  RH WIND       PRES   REMARKS
ADRIAN         PTCLDY    74  54  49 NW10      29.95S
6HR MIN TEMP:  74; 6HR MAX TEMP:  80;

ALMA           CLEAR     73  51  45 NW7       29.94R
ANN ARBOR      PTCLDY    75  55  49 MISG      29.93S
BAD AXE        CLOUDY    67  60  80 CALM      29.93R
6HR MIN TEMP:  66; 6HR MAX TEMP:  75;

DETROIT CITY   CLEAR     78  53  41 W10       29.91S
6HR MIN TEMP:  78; 6HR MAX TEMP:  81;

DETROIT        MOCLDY    77  55  46 W10       29.92F
6HR MIN TEMP:  77; 6HR MAX TEMP:  82;

FLINT          CLEAR     76  54  46 W10       29.92S
6HR MIN TEMP:  76; 6HR MAX TEMP:  81;

GROSSE ILE     MOCLDY    79  55  44 W7        29.91S
HILLSDALE      PTCLDY    73  55  53 W5        29.96F
HOWELL         PTCLDY    73  52  48 W8        29.94S
6HR MIN TEMP:  73; 6HR MAX TEMP:  80;


CITY           SKY/WX    TMP DP  RH WIND       PRES   REMARKS
JACKSON        CLOUDY    72  55  55 W7        29.95S
6HR MIN TEMP:  72; 6HR MAX TEMP:  78;

LAMBERTVILLE   PTCLDY    77  59  54 W3        29.94S
6HR MIN TEMP:  77; 6HR MAX TEMP:  82;

LANSING        CLEAR     73  53  49 W9        29.95S
6HR MIN TEMP:  73; 6HR MAX TEMP:  80;

LAPEER         NOT AVBL
MASON          PTCLDY    72  54  53 NW8       29.94S
MONROE         PTCLDY    76  58  54 W7        29.92S
MT. CLEMENS    PTCLDY    77  56  49 W7        29.89S
6HR MIN TEMP:  76; 6HR MAX TEMP:  80;

PONTIAC        PTCLDY    74  53  48 W14       29.92S
6HR MIN TEMP:  74; 6HR MAX TEMP:  79;

PORT HURON     CLOUDY    66  61  82 NE7       29.93R
TRI CITIES     PTCLDY    75  54  47 N12       29.93R
6HR MIN TEMP:  75; 6HR MAX TEMP:  79;

YPSILANTI      PTCLDY    80  55  42 NW10      29.93S
6HR MIN TEMP:  78; 6HR MAX TEMP:  84;

$$
MIZ043>046-050>051-056>058-064>065-071>073-077>080-050100-
SOUTHWEST LOWER MICHIGAN

CITY           SKY/WX    TMP DP  RH WIND       PRES   REMARKS
BATTLE CREEK   PTCLDY    74  58  57 W9        29.97R
BENTON HARBOR  MOCLDY    73  57  57 VRB3      29.96S
6HR MIN TEMP:  73; 6HR MAX TEMP:  78;

BIG RAPIDS     CLEAR     70  49  46 NW5       29.94S
6HR MIN TEMP:  70; 6HR MAX TEMP:  76;

COLDWATER      PTCLDY    72  55  54 W3        29.96S
6HR MIN TEMP:  72; 6HR MAX TEMP:  78;

HOLLAND        PTCLDY    74  54  49 NW7       29.96F
6HR MIN TEMP:  74; 6HR MAX TEMP:  79;

GRAND RAPIDS   PTCLDY    74  52  46 NW12      29.95S
6HR MIN TEMP:  74; 6HR MAX TEMP:  80;

KALAMAZOO      PTCLDY    74  55  51 NW9       29.96S
6HR MIN TEMP:  74; 6HR MAX TEMP:  81;

MARSHALL       MOCLDY    73  56  54 W6        29.95R
MUSKEGON       MOSUNNY   72  58  61 W6        29.95S
6HR MIN TEMP:  72; 6HR MAX TEMP:  77;

$$
MIZ016>042-050100-
NORTHERN LOWER MICHIGAN

CITY           SKY/WX    TMP DP  RH WIND       PRES   REMARKS
ALPENA         CLEAR     69  50  50 NW8       29.92S
6HR MIN TEMP:  69; 6HR MAX TEMP:  76;

BEAVER ISLAND  CLOUDY    64  55  70 W5        29.96R
6HR MIN TEMP:  64; 6HR MAX TEMP:  69;

BELLAIRE       MOCLDY    66  53  64 NW3       29.95F
6HR MIN TEMP:  66; 6HR MAX TEMP:  71;

CADILLAC       CLOUDY    67  54  64 NW7       29.96S
CHARLEVOIX     CLOUDY    65  55  68 W6        29.98S
FRANKFORT      CLOUDY    68  58  71 CALM      29.95S
GAYLORD        CLOUDY    64  54  69 NW5       29.96S
6HR MIN TEMP:  64; 6HR MAX TEMP:  70;

GRAYLING       MOCLDY    66  53  62 NW7       29.96S
HARBOR SPRINGS MOCLDY    66  56  69 W6        29.95R
HOUGHTON LAKE  CLOUDY    67  53  61 NW9       29.96R
6HR MIN TEMP:  67; 6HR MAX TEMP:  74;

MANISTEE       SUNNY     70  54  56 N7        29.96S
OSCODA         PTCLDY    65  56  73 E6        29.92R
PELLSTON       CLOUDY    66  50  56 NW9       29.94S
6HR MIN TEMP:  66; 6HR MAX TEMP:  71; 6HR PCP: TRACE;

TRAVERSE CITY  MOCLDY    68  54  60 N6        29.94S
6HR MIN TEMP:  68; 6HR MAX TEMP:  74;

$$
MIZ007>008-015-050100-
EASTERN UPPER MICHIGAN

CITY           SKY/WX    TMP DP  RH WIND       PRES   REMARKS
KINROSS        CLEAR     61  48  63 NW12      29.94R
6HR MIN TEMP:  61; 6HR MAX TEMP:  66;

MACKINAC ISLAN PTCLDY    64  47  52 NW9       29.93R
6HR MIN TEMP:  64; 6HR MAX TEMP:  69;

NEWBERRY       CLOUDY    59  48  66 NW6       29.96S
6HR MIN TEMP:  59; 6HR MAX TEMP:  70; 6HR PCP:  0.04;

S. S. MARIE    PTCLDY    59  48  67 NW12      29.93S
6HR MIN TEMP:  59; 6HR MAX TEMP:  66;

$$
MIZ004>006-011>014-085-050100-
CENTRAL UPPER MICHIGAN

CITY           SKY/WX    TMP DP  RH WIND       PRES   REMARKS
MANISTIQUE     CLOUDY    62  49  61 NW10G18   29.96S
6HR MIN TEMP:  62; 6HR MAX TEMP:  71;

ESCANABA       MOSUNNY   64  52  63 NE8       29.96S
6HR MIN TEMP:  61; 6HR MAX TEMP:  66;

MENOMINEE      PTSUNNY   66  55  68 E8        29.95S
6HR MIN TEMP:  66; 6HR MAX TEMP:  72;

SAWYER-GWINN   MOSUNNY   59  52  77 NE7       29.99
$$
MIZ001>003-009>011-084-050100-
WESTERN UPPER MICHIGAN

CITY           SKY/WX    TMP DP  RH WIND       PRES   REMARKS
IRON MOUNTAIN  MOSUNNY   69  49  48 N10       29.96S
6HR MIN TEMP:  68; 6HR MAX TEMP:  75;

HOUGHTON       SUNNY     61  48  62 W9        29.99S
6HR MIN TEMP:  61; 6HR MAX TEMP:  65;

COPPER HARBOR    N/A     63  50  62 N14       29.97S
6HR MIN TEMP:  59; 6HR MAX TEMP:  66;

IRONWOOD       SUNNY     63  50  63 N6        29.99R
6HR MIN TEMP:  63; 6HR MAX TEMP:  66;

$$

ABBREVIATIONS USED IN REMARKS
   TC - TEMPERATURE IN CELSIUS
  WCI - WIND CHILL INDEX
   HX - HEAT INDEX
  VSB - VISIBILITY




USA.gov is the U.S. government's official web portal to all federal, state and local government web resources and services.